Regional Weather Roundup
Issued by NWS Boston, MA

Home | Current Version | Previous Version | Text Only | Print | Product List | Glossary On
Versions: 1 2 3 4 5 6 7 8 9 10 11 12 13 14 15 16 17 18 19 20 21 22 23 24 25 26 27 28
000
ASUS41 KBOX 310704
RWRBOX

REGIONAL WEATHER ROUNDUP
NATIONAL WEATHER SERVICE BOSTON/NORTON MA
300 AM EDT SAT JUL 31 2021

NOTE:  "FAIR" INDICATES FEW OR NO CLOUDS BELOW 12,000 FEET WITH NO
SIGNIFICANT WEATHER AND/OR OBSTRUCTIONS TO VISIBILITY.

MAZALL-310800-
EASTERN MASSACHUSETTS

CITY           SKY/WX    TMP DP  RH WIND       PRES   REMARKS
BOSTON         NOT AVBL
BEVERLY        CLEAR     58  48  69 W7        29.87S
LAWRENCE       CLEAR     58  46  64 W6        29.89F
BEDFORD        CLEAR     54  48  80 W5        29.88F
BLUE HILL      NOT AVBL
NORWOOD        CLEAR     53  49  86 CALM      29.90F
MARSHFIELD     CLEAR     55  48  76 SW5       29.88F
PLYMOUTH       NOT AVBL
TAUNTON        CLEAR     53  48  83 W3        29.90S
NEW BEDFORD    CLEAR     58  48  69 NW7       29.89S
$$

MAZALL-310800-
CAPE COD AND THE ISLANDS

CITY           SKY/WX    TMP DP  RH WIND       PRES   REMARKS
FALMOUTH       NOT AVBL
HYANNIS        CLEAR     63  50  62 NW6       29.86S
CHATHAM        PTCLDY    64  46  52 VRB5      29.88S
PROVINCETOWN   CLEAR     63  50  62 NW18      29.87F
NANTUCKET      CLEAR     67  51  56 N13       29.88R
MARTHAS VNYRD  CLEAR     62  50  64 NW13      29.89S
$$

MAZALL-310800-
CENTRAL AND WESTERN MASSACHUSETTS

CITY           SKY/WX    TMP DP  RH WIND       PRES   REMARKS
WORCESTER      CLEAR     53  44  71 W8        29.93S
FITCHBURG      CLEAR     55  46  71 W5        29.92S
ORANGE         CLEAR     50  48  93 CALM      29.94S
SPRINGFIELD    CLEAR     50  48  91 NE5       29.93S
WESTFIELD      CLEAR     53  51  93 CALM      29.94S
NORTH ADAMS    CLEAR     51  47  86 NW6       29.96R
PITTSFIELD     CLEAR     50  47  89 W6        29.95S
$$

RIZALL-310800-
RHODE ISLAND

CITY           SKY/WX    TMP DP  RH WIND       PRES   REMARKS
PROVIDENCE     CLEAR     59  47  64 NW7       29.92R
NEWPORT        CLEAR     61  48  62 NW12      29.91S
BLOCK ISLAND   CLEAR     61  50  67 NW13G22   29.92S
SMITHFIELD     CLEAR     54  47  77 NW6       29.92S
WESTERLY       CLEAR     58  50  75 NW5       29.92S
$$

CTZALL-310800-
CONNECTICUT

CITY           SKY/WX    TMP DP  RH WIND       PRES   REMARKS
BRADLEY INTL   CLEAR     56  48  74 NW7       29.95S
HARTFORD       CLEAR     61  47  59 NW3       29.94F
BRIDGEPORT     CLEAR     62  47  57 N7        29.95S
DANBURY        CLEAR     56  47  71 W3        29.97F
GROTON         CLEAR     60  50  69 N10       29.92S
NEW HAVEN      CLEAR     63  49  60 NW9       29.95S
CHESTER        FAIR      59  48  67 NW10      29.94S
MERIDEN        CLEAR     54  49  83 CALM      29.95S
WILLIMANTIC    CLEAR     57  50  77 N3        29.94F
OXFORD         CLEAR     55  51  86 NW5       29.97F
$$

MEZ002-015-021-024-NHZ003-005-008-011-012-014-VTZ005-008-310800-
NORTHERN NEW ENGLAND

CITY           SKY/WX    TMP DP  RH WIND       PRES   REMARKS
PORTLAND ME    CLEAR     54  46  74 NW5       29.81F
BANGOR ME      CLOUDY    56  47  71 W8        29.75F
CONCORD NH     CLOUDY    58  45  62 W6        29.88S
MANCHESTER NH  PTCLDY    59  45  59 W6        29.87S
NASHUA NH      CLEAR     57  47  69 W7        29.89F
PORTSMOUTH NH  PTCLDY    58  45  62 W7        29.86F
JAFFREY NH     CLEAR     52  47  83 S5        29.92S
KEENE NH       CLEAR     49  48  97 S5        29.92F
BURLINGTON VT  CLOUDY    60  45  57 NW8       29.91F
MT. WASHINGTON FOG       32  32 100 NW45G59     N/A  VSB 0   WCI  15
$$

NYZ052-076-310800-
EASTERN NEW YORK

CITY           SKY/WX    TMP DP  RH WIND       PRES   REMARKS
ALBANY         PTCLDY    50  50 100 W5        29.97R
NEW YORK CITY  CLEAR     65  47  52 N9        29.96R
$$

ANZALL-310800-
MARINE OBSERVATIONS

STATION/POSITION TIME  TEMP    WIND        PRES    VSBY  WAVE
                       AIR SEA DIR/SP/G                  HT/PER
                 (UTC) (F)     (DEG/KT/KT) (MB)    (MI)  (FT/S)
BOSTON BUOY      0640      65  280/ 14/ 17 1012.1F
BUZZARDS BAY     0600          330/ 17/ 18 1013.4R
NANTUCKET SOUND  0640   67 74  330/ 16/ 19 1011.6R
MASS BAY-STELLWA 0604   62 64  310/ 14/ 17 1011.0F  1 7/8  2/ 4
ISLE OF SHOALS   0600   60     270/ 15/ 18 1010.3F
S OF BLOCK IS    0626      68                N/A           4/ 7
$$

......................KEY.........................
  SKY/WX - SKY CONDITION/PRESENT WEATHER
  TMP    - TEMPERATURE IN FAHRENHEIT
  DWPT   - DEWPOINT IN FAHRENHEIT
  RH     - RELATIVE HUMIDITY IN PERCENT
  WIND   - DIRECTION AND SPEED IN MPH
  PRES   - MEAN SEA LEVEL PRESSURE IN INCHES OF HG
  WCI    - WIND CHILL INDEX
  VSB    - VISIBILITY IN MILES
  HX     - HEAT INDEX
  TC     - TEMPERATURE IN CELSIUS
  VRB    - VARIABLE WIND DIRECTION
  N/A    - NOT AVAILABLE



USA.gov is the U.S. government's official web portal to all federal, state and local government web resources and services.